Volver al catálogo

STARLINK-35806

ActivoComunicacionesVLEO
NORAD 66363·PAYLOAD·🇺🇸 United States

Lanzado Nov 6, 2025 desde Vandenberg Space Force Base

Loading…

Próximos Pases (próximas 24 horas)

TLE

ActualizadoSource: CelesTrak SupGP

Época: Sep 14, 2026, 21:13 UTC

1 66363C 25254R   26257.88451389  .00009379  00000+0  27715-3 0  2579
2 66363  53.1593  72.1224 0001191  77.6462 295.1093 15.34380785    18

Sigue STARLINK-35806 en tiempo real con AllMySat

Download on the App Store